DW8761 Weather Reports


Display with metric or nautical units.
time (UTC)temp
F
wind
direction
speed
MPH
gust
MPH
rain 1hr
in
rain 24hr
in
rain mn
in
humidity
%
barometer
mb
20180619063010 56 149 0.0 1.0 0.00 0.00 0.00 92 1019.3
20180619061456 56 98 0.0 0.0 0.00 0.00 0.00 92 1019.1
20180619055944 56 97 0.0 1.0 0.00 0.00 0.00 92 1019.1
20180619054422 56 97 0.0 1.0 0.00 0.00 0.00 92 1019.2
20180619052912 56 96 0.0 1.0 0.00 0.00 0.00 91 1019.2
20180619051401 56 92 0.0 0.0 0.00 0.00 0.00 91 1019.1
20180619045841 56 91 0.0 0.0 0.00 0.00 0.00 91 1019.0
20180619044329 56 92 0.0 0.0 0.00 0.00 0.00 90 1018.9
20180619042816 56 92 0.0 0.0 0.00 0.00 0.00 89 1018.8
20180619041303 57 92 0.0 0.0 0.00 0.00 0.00 88 1018.8
20180619035751 58 92 0.0 0.0 0.00 0.00 0.00 87 1018.6
20180619034234 58 91 0.0 1.0 0.00 0.00 0.00 87 1018.7
20180619032729 59 93 0.0 1.0 0.00 0.00 0.00 86 1018.8
20180619031217 60 84 0.0 2.0 0.00 0.00 0.00 85 1018.8
20180619025702 61 90 0.0 3.0 0.00 0.00 0.00 83 1018.7
20180619024153 62 80 0.0 3.0 0.00 0.00 0.00 82 1018.7
20180619022642 63 97 0.0 3.0 0.00 0.00 0.00 80 1018.6
20180619021120 63 89 1.0 4.0 0.00 0.00 0.00 81 1018.7
20180619015607 62 51 0.0 5.0 0.00 0.00 0.00 83 1018.8
20180619014050 61 90 2.0 6.0 0.00 0.00 0.00 83 1018.7
20180619012537 61 77 3.0 9.0 0.00 0.00 0.00 82 1018.8
20180619011006 62 89 3.0 7.0 0.00 0.00 0.00 82 1018.8
20180619005442 62 67 1.0 8.0 0.00 0.00 0.00 82 1018.9
20180619003924 63 84 2.0 6.0 0.00 0.00 0.00 80 1019.0
20180619002413 64 107 0.0 4.0 0.00 0.00 0.00 78 1018.9
20180619000859 64 86 0.0 3.0 0.00 0.00 0.00 78 1019.1
20180618235344 64 74 0.0 3.0 0.00 0.00 0.00 79 1019.1
20180618233825 64 80 1.0 5.0 0.00 0.00 0.00 77 1019.1
20180618232308 65 300 0.0 11.0 0.00 0.00 0.00 77 1019.1
20180618230759 66 51 1.0 6.0 0.00 0.00 0.00 77 1019.2
20180618225250 64 110 0.0 4.0 0.00 0.00 0.00 80 1019.3
20180618223729 64 70 0.0 6.0 0.00 0.00 0.00 77 1019.2
20180618222218 67 38 0.0 5.0 0.00 0.00 0.00 76 1019.3
20180618220702 65 61 0.0 9.0 0.00 0.00 0.00 79 1019.2
20180618215148 64 99 0.0 4.0 0.00 0.00 0.00 79 1019.2
20180618213631 65 82 1.0 6.0 0.00 0.00 0.00 79 1019.1
20180618212118 65 67 1.0 5.0 0.00 0.00 0.00 80 1019.1
20180618210604 64 118 0.0 9.0 0.00 0.00 0.00 80 1019.1
20180618205048 65 44 0.0 6.0 0.00 0.00 0.00 81 1019.1
20180618203516 64 57 0.0 3.0 0.00 0.00 0.00 84 1019.1
20180618202002 63 87 0.0 4.0 0.00 0.00 0.00 83 1018.9
20180618200452 63 108 0.0 6.0 0.00 0.00 0.00 84 1018.8
20180618194929 62 86 0.0 3.0 0.00 0.00 0.00 84 1018.9
20180618193417 61 69 0.0 4.0 0.00 0.00 0.00 86 1018.8
20180618191904 62 84 0.0 3.0 0.00 0.00 0.00 86 1018.8
20180618190347 61 96 0.0 3.0 0.00 0.00 0.00 86 1018.8
20180618184836 61 71 0.0 4.0 0.00 0.00 0.00 86 1018.7
20180618183318 62 79 0.0 4.0 0.00 0.00 0.00 85 1018.8
20180618181803 62 92 0.0 4.0 0.00 0.00 0.00 85 1018.8
20180618180252 62 28 0.0 4.0 0.00 0.00 0.00 86 1018.8
20180618174730 62 53 0.0 4.0 0.00 0.00 0.00 87 1018.8
20180618173216 61 41 0.0 3.0 0.00 0.00 0.00 89 1018.6
20180618171659 61 270 0.0 2.0 0.00 0.00 0.00 90 1018.4
20180618170146 60 46 0.0 2.0 0.00 0.00 0.00 91 1018.4
20180618164622 60 76 0.0 3.0 0.00 0.00 0.00 90 1018.4
20180618163110 59 63 0.0 2.0 0.00 0.00 0.00 91 1018.3
20180618161551 60 84 0.0 3.0 0.00 0.00 0.00 92 1018.1
20180618160039 59 109 0.0 2.0 0.00 0.00 0.00 93 1018.0
20180618154502 59 81 0.0 1.0 0.00 0.00 0.00 94 1017.8
20180618152948 58 348 0.0 2.0 0.00 0.00 0.00 95 1017.6
20180618151432 58 58 0.0 2.0 0.00 0.00 0.00 96 1017.4
20180618145916 57 32 0.0 4.0 0.00 0.00 0.00 96 1017.2
20180618144402 57 14 0.0 5.0 0.00 0.00 0.00 96 1017.0
20180618142845 57 96 0.0 1.0 0.00 0.00 0.00 96 1016.8
20180618141333 57 74 0.0 1.0 0.00 0.00 0.00 97 1016.6
20180618135820 57 342 0.0 1.0 0.00 0.00 0.00 97 1016.6
20180618134305 57 243 0.0 0.0 0.00 0.00 0.00 96 1016.2
20180618132748 57 242 0.0 0.0 0.00 0.00 0.00 97 1015.9
20180618131229 57 243 0.0 0.0 0.00 0.00 0.00 97 1015.8
20180618125712 57 243 0.0 0.0 0.00 0.00 0.00 97 1015.6
20180618124157 57 242 0.0 0.0 0.00 0.00 0.00 97 1015.4
20180618122646 56 242 0.0 0.0 0.00 0.00 0.00 97 1015.2
20180618121134 56 247 0.0 0.0 0.00 0.00 0.00 97 1015.2
20180618115612 56 248 0.0 2.0 0.00 0.00 0.00 97 1015.3
20180618114101 57 229 0.0 0.0 0.00 0.00 0.00 96 1015.3
20180618112557 57 228 0.0 1.0 0.00 0.00 0.00 96 1015.3
20180618111045 57 229 0.0 1.0 0.00 0.00 0.00 96 1015.3
20180618105509 57 229 0.0 0.0 0.00 0.00 0.00 96 1015.3
20180618103957 57 229 0.0 0.0 0.00 0.00 0.00 96 1015.3
20180618102436 57 229 0.0 1.0 0.00 0.00 0.00 96 1015.3
20180618100922 57 229 0.0 0.0 0.00 0.00 0.00 96 1015.3
20180618095406 57 51 0.0 0.0 0.00 0.00 0.00 96 1015.2
20180618093857 57 51 0.0 0.0 0.00 0.00 0.00 96 1015.1
20180618092342 57 63 0.0 0.0 0.00 0.00 0.00 96 1015.1
20180618090824 58 63 0.0 0.0 0.00 0.00 0.00 96 1015.0
20180618085310 57 63 0.0 0.0 0.00 0.00 0.00 96 1014.9
20180618083759 57 63 0.0 0.0 0.00 0.00 0.00 96 1015.0
20180618082248 57 65 0.0 1.0 0.00 0.00 0.00 96 1015.1
20180618080735 57 11 0.0 2.0 0.00 0.00 0.00 96 1015.1
20180618075215 57 329 0.0 1.0 0.00 0.00 0.00 96 1014.8
20180618073703 57 128 0.0 1.0 0.00 0.00 0.00 95 1014.9
20180618072146 57 86 0.0 1.0 0.00 0.00 0.00 95 1014.8
20180618070634 58 82 0.0 1.0 0.00 0.00 0.00 94 1014.7
20180618065054 58 90 0.0 0.0 0.00 0.00 0.00 95 1014.7